DW6743 Weather Reports


Display with metric or nautical units.
time (UTC)temp
F
wind
direction
speed
MPH
gust
MPH
rain 1hr
in
rain 24hr
in
rain mn
in
humidity
%
barometer
mb
20260905034804 60 296 21.0 28.0 0.00 0.45 0.12 82 999.1
20260905034610 60 300 21.0 29.0 0.00 0.22 0.11 82 999.1
20260905034304 60 299 19.0 29.0 0.00 0.45 0.12 82 999.2
20260905033804 60 301 21.0 29.0 0.00 0.45 0.12 81 999.2
20260905033304 60 311 21.0 33.0 0.00 0.46 0.12 81 999.2
20260905033114 60 285 22.0 33.0 0.00 0.22 0.11 80 999.1
20260905031804 60 304 18.0 30.0 0.00 0.46 0.12 81 999.1
20260905031620 60 305 19.0 32.0 0.00 0.22 0.11 81 999.0
20260905030804 60 316 22.0 32.0 0.00 0.46 0.12 82 999.0
20260905030304 60 309 22.0 32.0 0.00 0.46 0.12 83 998.9
20260905030119 59 310 20.0 29.0 0.00 0.22 0.11 83 998.9
20260905024612 59 319 18.0 28.0 0.00 0.22 0.11 83 998.7
20260905024304 60 306 21.0 28.0 0.00 0.46 0.12 83 998.8
20260905023804 60 311 21.0 26.0 0.00 0.46 0.12 83 998.7
20260905023105 59 291 19.0 31.0 0.00 0.22 0.11 83 998.6
20260905021804 60 298 22.0 32.0 0.00 0.46 0.12 83 998.4
20260905021611 59 294 25.0 32.0 0.00 0.22 0.11 83 998.3
20260905021304 60 302 23.0 30.0 0.00 0.35 0.12 83 998.4
20260905020804 60 304 22.0 31.0 0.00 0.35 0.12 83 998.3
20260905020303 60 302 24.0 35.0 0.00 0.35 0.12 84 998.2
20260905020108 59 285 24.0 34.0 0.00 0.22 0.11 83 998.2
20260905014804 60 306 19.0 31.0 0.05 0.35 0.12 83 998.2
20260905014607 60 305 19.0 34.0 0.04 0.22 0.11 83 998.2
20260905014305 59 319 18.0 32.0 0.05 0.35 0.12 83 998.2
20260905013304 59 317 22.0 32.0 0.05 0.35 0.12 84 998.1
20260905013108 59 347 22.0 33.0 0.04 0.22 0.11 84 998.0
20260905011804 59 302 21.0 29.0 0.06 0.35 0.12 85 997.9
20260905011608 58 300 21.0 32.0 0.05 0.22 0.11 85 997.9
20260905011304 59 307 21.0 28.0 0.06 0.35 0.12 85 997.9
20260905010804 59 310 26.0 32.0 0.06 0.35 0.12 85 997.8
20260905010106 58 300 15.0 41.0 0.05 0.22 0.11 85 997.7
20260905004804 59 313 14.0 21.0 0.02 0.31 0.07 86 997.9
20260905004609 58 337 12.0 19.0 0.03 0.18 0.07 85 997.8
20260905003304 58 319 14.0 22.0 0.05 0.31 0.07 86 997.9
20260905003102 58 310 13.0 22.0 0.04 0.18 0.07 85 998.1
20260905001804 57 309 16.0 22.0 0.04 0.30 0.06 86 998.0
20260905001612 57 330 11.0 19.0 0.03 0.17 0.06 86 998.0
20260905001304 56 317 13.0 18.0 0.04 0.30 0.06 86 998.0
20260905000805 56 310 9.0 16.0 0.05 0.30 0.06 86 997.9
20260905000303 55 326 10.0 20.0 0.06 0.30 0.06 86 997.9
20260905000107 55 331 10.0 20.0 0.05 0.17 0.06 85 997.9
20260904234804 56 318 16.0 24.0 0.05 0.28 0.05 86 998.0
20260904234608 56 321 17.0 25.0 0.03 0.14 0.03 85 997.9
20260904234303 57 319 18.0 25.0 0.04 0.28 0.04 86 997.8
20260904233804 57 308 16.0 21.0 0.03 0.27 0.03 86 997.7
20260904233305 57 324 12.0 17.0 0.02 0.26 0.02 86 997.6
20260904233104 57 324 9.0 18.0 0.02 0.13 0.02 85 997.5
20260904231804 57 320 8.0 12.0 0.02 0.26 0.02 86 997.4
20260904231606 57 330 8.0 14.0 0.02 0.13 0.02 85 997.3
20260904230804 57 316 9.0 14.0 0.02 0.25 0.02 85 997.3
20260904230304 57 327 12.0 18.0 0.01 0.24 0.01 85 997.3
20260904230107 56 335 13.0 18.0 0.00 0.11 0.00 85 997.3
20260904224804 57 327 13.0 20.0 0.06 0.24 0.00 85 997.4
20260904224604 56 318 13.0 20.0 0.05 0.11 0.00 85 997.3
20260904224304 57 325 13.0 20.0 0.06 0.24 0.00 86 997.5
20260904223804 57 323 12.0 20.0 0.06 0.25 0.00 86 997.4
20260904223105 57 331 12.0 18.0 0.06 0.11 0.00 85 997.3
20260904221803 57 335 12.0 18.0 0.06 0.26 0.00 86 997.2
20260904221608 57 354 14.0 20.0 0.06 0.11 0.00 85 997.1
20260904220828 58 319 14.0 20.0 0.06 0.26 0.00 86 997.2
20260904220304 58 332 14.0 21.0 0.06 0.26 0.00 86 997.1
20260904220113 57 314 13.0 21.0 0.06 0.11 0.00 85 997.0
20260904214804 57 337 13.0 18.0 0.01 0.20 0.06 85 997.0
20260904214603 57 330 12.0 22.0 0.00 0.08 0.06 84 997.1
20260904214304 58 342 15.0 22.0 0.01 0.20 0.06 85 997.1
20260904213804 59 332 13.0 21.0 0.00 0.20 0.06 85 997.1
20260904213305 60 322 16.0 21.0 0.00 0.20 0.06 85 996.9
20260904213109 59 316 12.0 17.0 0.00 0.07 0.05 85 996.9
20260904211804 59 324 10.0 14.0 0.00 0.21 0.06 85 996.8
20260904211609 59 343 10.0 19.0 0.00 0.07 0.05 85 996.7
20260904211304 59 332 11.0 17.0 0.00 0.21 0.06 85 996.7
20260904210804 59 334 12.0 20.0 0.00 0.21 0.06 85 996.8
20260904210304 59 327 12.0 18.0 0.00 0.22 0.06 85 996.7
20260904210116 59 327 12.0 17.0 0.00 0.07 0.05 85 996.7
20260904204804 59 331 12.0 17.0 0.00 0.19 0.06 85 996.7
20260904204606 59 322 9.0 16.0 0.00 0.10 0.05 85 996.6
20260904204304 59 328 10.0 14.0 0.00 0.19 0.06 85 996.7
20260904203804 60 331 12.0 16.0 0.00 0.46 0.06 85 996.7
20260904203304 60 328 12.0 17.0 0.00 0.46 0.06 85 996.7
20260904203105 59 359 9.0 13.0 0.00 0.10 0.05 85 996.7
20260904201606 59 337 10.0 19.0 0.02 0.10 0.05 84 996.9
20260904201304 60 310 12.0 16.0 0.03 0.46 0.06 85 996.9
20260904200804 60 314 14.0 20.0 0.03 0.46 0.06 85 996.8
20260904200304 60 303 16.0 20.0 0.04 0.46 0.06 85 996.8
20260904200127 60 305 14.0 20.0 0.03 0.10 0.05 85 996.8
20260904194636 59 264 12.0 18.0 0.04 0.10 0.05 85 996.7
20260904194304 59 275 12.0 17.0 0.05 0.46 0.06 85 996.8
20260904193804 59 272 10.0 14.0 0.05 0.46 0.06 85 996.8
20260904193121 59 249 8.0 11.0 0.03 0.09 0.04 85 996.8
20260904191805 58 262 2.0 5.0 0.03 0.71 0.04 85 996.8
20260904191624 58 262 1.0 10.0 0.02 0.07 0.03 84 996.8
20260904191305 58 262 3.0 8.0 0.02 0.69 0.02 85 996.9
20260904190804 59 269 6.0 10.0 0.02 0.69 0.02 84 996.9
20260904190304 59 262 9.0 12.0 0.01 0.69 0.02 84 996.9
20260904190108 59 260 6.0 12.0 0.00 0.06 0.01 84 996.8
20260904184614 59 291 4.0 11.0 0.00 0.05 0.00 84 997.0
20260904183804 59 272 7.0 12.0 0.00 0.68 0.01 84 997.1
20260904183304 59 263 10.0 20.0 0.00 0.68 0.01 84 997.2
20260904183113 59 279 11.0 19.0 0.00 0.05 0.00 83 997.1
20260904181804 60 263 17.0 21.0 0.00 0.68 0.01 82 997.2
20260904181603 60 253 17.0 22.0 0.00 0.05 0.00 81 997.1
20260904181304 61 263 20.0 22.0 0.00 0.67 0.01 81 997.2
20260904180109 61 274 10.0 13.0 0.00 0.05 0.00 81 997.0
20260904174606 61 270 10.0 13.0 0.00 0.05 0.00 81 997.1
20260904174304 61 286 10.0 13.0 0.00 0.94 0.01 82 997.2
20260904173804 61 292 9.0 13.0 0.00 0.93 0.01 82 997.2
20260904173304 61 287 10.0 14.0 0.00 0.93 0.01 82 997.2
20260904173117 61 293 8.0 14.0 0.00 0.05 0.00 81 997.1
20260904171804 61 307 10.0 12.0 0.00 0.93 0.01 82 997.1
20260904171606 60 300 7.0 13.0 0.00 0.05 0.00 81 997.2
20260904171304 61 300 9.0 13.0 0.00 0.93 0.01 82 997.2
20260904170804 61 284 10.0 13.0 0.00 0.93 0.01 82 997.1
20260904170304 61 292 11.0 14.0 0.00 0.93 0.01 82 997.1
20260904170110 61 271 9.0 14.0 0.00 0.05 0.00 81 997.0
20260904164804 61 273 12.0 14.0 0.00 0.93 0.01 81 997.1
20260904164605 61 269 9.0 12.0 0.00 0.05 0.00 80 997.1
20260904163304 62 274 9.0 12.0 0.00 0.93 0.01 80 997.2
20260904163108 62 270 6.0 11.0 0.00 0.05 0.00 79 997.0
20260904161804 61 279 9.0 10.0 0.00 0.93 0.01 80 997.3
20260904161607 61 283 8.0 10.0 0.00 0.05 0.00 80 997.2
20260904161304 61 285 7.0 10.0 0.00 0.93 0.01 80 997.3
20260904160304 61 282 9.0 12.0 0.00 0.93 0.01 80 997.4
20260904160106 61 287 10.0 12.0 0.00 0.05 0.00 80 997.4
20260904154804 62 271 7.0 12.0 0.00 0.94 0.01 79 997.4
20260904154620 62 289 6.0 11.0 0.00 0.24 0.00 78 997.4
20260904154304 62 293 9.0 12.0 0.00 0.94 0.01 78 997.6
20260904153804 63 293 7.0 10.0 0.00 0.98 0.01 78 997.4
20260904153304 63 289 9.0 12.0 0.00 1.02 0.01 79 997.3
20260904153109 62 275 8.0 12.0 0.00 0.24 0.00 79 997.3
20260904151804 62 296 8.0 12.0 0.00 1.09 0.01 79 997.5
20260904151612 62 296 8.0 10.0 0.00 0.24 0.00 78 997.5
20260904151304 62 291 7.0 10.0 0.00 1.10 0.01 78 997.5
20260904150304 63 280 7.0 12.0 0.00 1.19 0.01 80 997.5
20260904150103 62 291 8.0 11.0 0.00 0.24 0.00 79 997.4
20260904144804 62 272 7.0 9.0 0.00 1.21 0.01 80 997.3
20260904144604 62 270 5.0 10.0 0.00 0.31 0.00 80 997.2
20260904144304 62 268 7.0 9.0 0.00 1.22 0.01 81 997.3
20260904143804 62 267 6.0 10.0 0.00 1.23 0.01 81 997.4
20260904143304 62 264 9.0 12.0 0.00 1.24 0.01 81 997.5
20260904143107 61 266 8.0 11.0 0.00 0.31 0.00 81 997.5
20260904141804 61 279 6.0 8.0 0.00 1.27 0.01 82 997.6
20260904141624 60 287 5.0 10.0 0.00 0.31 0.00 81 997.6
20260904141304 61 285 7.0 9.0 0.00 1.26 0.01 82 997.7
20260904140804 61 269 6.0 10.0 0.00 1.27 0.01 81 997.8
20260904140110 60 285 8.0 11.0 0.00 0.31 0.00 81 997.8
20260904134621 60 277 7.0 11.0 0.00 0.32 0.00 80 997.9
20260904134304 61 270 9.0 12.0 0.00 1.28 0.01 80 998.0
20260904133804 61 271 8.0 12.0 0.00 1.28 0.01 80 998.1
20260904133117 61 259 7.0 11.0 0.00 0.32 0.00 79 998.0
20260904131804 61 263 9.0 12.0 0.00 1.28 0.01 79 998.2
20260904131615 60 271 9.0 12.0 0.00 0.32 0.00 78 998.1
20260904130803 61 269 8.0 12.0 0.00 1.28 0.01 79 998.3
20260904130304 61 286 7.0 12.0 0.00 1.28 0.01 79 998.4
20260904130105 61 280 7.0 12.0 0.00 0.32 0.00 78 998.3
20260904124804 61 266 10.0 12.0 0.00 1.28 0.01 78 998.3
20260904124607 60 268 8.0 12.0 0.00 0.32 0.00 78 998.3
20260904124304 60 276 9.0 12.0 0.00 1.28 0.01 79 998.3
20260904123804 60 268 8.0 12.0 0.00 1.28 0.01 80 998.4
20260904123304 61 282 10.0 13.0 0.00 1.28 0.01 81 998.4
20260904123133 60 284 8.0 13.0 0.00 0.32 0.00 80 998.3
20260904121804 61 278 10.0 12.0 0.00 1.28 0.01 81 998.5
20260904121603 60 278 9.0 13.0 0.00 0.32 0.00 81 998.5
20260904121304 61 261 10.0 13.0 0.00 1.28 0.01 81 998.5
20260904120803 61 267 9.0 12.0 0.00 1.28 0.01 82 998.5
20260904120304 61 265 11.0 14.0 0.00 1.28 0.01 81 998.5
20260904120109 61 271 9.0 14.0 0.00 0.32 0.00 81 998.5
20260904114804 61 271 10.0 14.0 0.00 1.28 0.01 81 998.7
20260904114609 60 272 12.0 15.0 0.00 0.32 0.00 80 998.8
20260904114304 61 265 11.0 14.0 0.00 1.28 0.01 81 998.8
20260904113804 61 271 12.0 15.0 0.00 1.28 0.01 81 998.8
20260904113111 60 266 13.0 16.0 0.00 0.32 0.00 81 998.7
20260904111613 60 268 11.0 16.0 0.00 0.32 0.00 81 998.9
20260904111304 61 268 11.0 15.0 0.00 1.28 0.01 82 999.0
20260904110804 61 265 14.0 16.0 0.00 1.28 0.01 82 998.9
20260904110304 61 270 12.0 16.0 0.00 1.28 0.01 82 999.0
20260904110111 61 260 12.0 16.0 0.00 0.32 0.00 81 999.0
20260904104804 61 263 12.0 14.0 0.00 1.28 0.01 82 999.0
20260904104605 61 264 11.0 16.0 0.00 0.32 0.00 81 999.0
20260904103804 61 269 10.0 16.0 0.00 1.28 0.01 82 999.2
20260904103304 61 266 12.0 17.0 0.00 1.28 0.01 82 999.3
20260904103107 61 270 12.0 17.0 0.00 0.32 0.00 81 999.4
20260904101606 60 282 12.0 17.0 0.00 0.32 0.00 81 999.4
20260904101304 61 266 13.0 17.0 0.00 1.28 0.01 81 999.5
20260904100304 61 268 14.0 18.0 0.00 1.27 0.01 81 999.6
20260904100111 60 263 11.0 18.0 0.00 0.32 0.00 81 999.6
20260904094804 60 274 13.0 18.0 0.00 1.27 0.01 80 999.7
20260904094608 60 284 13.0 19.0 0.00 0.32 0.00 79 999.6
20260904094304 60 280 14.0 20.0 0.00 1.27 0.01 80 999.8
20260904093804 60 266 14.0 18.0 0.00 1.27 0.01 80 999.8
20260904093304 60 271 15.0 22.0 0.00 1.27 0.01 81 999.9
20260904093108 60 268 14.0 22.0 0.00 0.32 0.00 81 1000.1
20260904091804 60 276 15.0 21.0 0.00 1.27 0.01 80 1000.2
20260904091608 59 289 17.0 24.0 0.00 0.32 0.00 80 1000.2
20260904091304 60 280 20.0 24.0 0.00 1.27 0.01 81 1000.2
20260904090804 60 265 18.0 22.0 0.00 1.27 0.01 82 1000.2
20260904090304 60 268 17.0 23.0 0.00 1.27 0.01 82 1000.3
20260904090106 60 268 17.0 23.0 0.00 0.32 0.00 82 1000.3
20260904084803 61 286 18.0 23.0 0.00 1.27 0.01 82 1000.3
20260904084606 60 300 17.0 23.0 0.00 0.32 0.00 81 1000.3
20260904084304 61 274 15.0 23.0 0.00 1.27 0.01 82 1000.3
20260904083804 60 285 17.0 21.0 0.00 1.27 0.01 82 1000.3
20260904083304 61 287 17.0 21.0 0.00 1.27 0.01 82 1000.3
20260904083109 60 274 14.0 23.0 0.00 0.32 0.00 82 1000.2
20260904081804 61 265 17.0 22.0 0.00 1.27 0.01 82 1000.4
20260904081603 60 245 17.0 23.0 0.00 0.32 0.00 82 1000.4
20260904081304 61 273 18.0 23.0 0.00 1.27 0.01 82 1000.4
20260904080804 60 270 19.0 23.0 0.00 1.27 0.01 82 1000.3
20260904080304 60 266 17.0 24.0 0.00 1.27 0.01 83 1000.3
20260904080117 60 270 17.0 24.0 0.00 0.32 0.00 82 1000.4
20260904074605 60 270 19.0 24.0 0.00 0.32 0.00 82 1000.4
20260904074304 61 271 20.0 24.0 0.00 1.27 0.01 82 1000.5
20260904073804 61 273 18.0 21.0 0.00 1.27 0.01 82 1000.6
20260904073305 61 273 16.0 25.0 0.00 1.27 0.01 81 1000.6
20260904073105 60 271 17.0 25.0 0.00 0.32 0.00 80 1000.5
20260904071804 61 285 20.0 25.0 0.00 1.27 0.01 80 1000.7
20260904071604 60 276 19.0 26.0 0.00 0.32 0.00 80 1000.8
20260904071304 61 274 19.0 24.0 0.00 1.27 0.01 81 1000.7
20260904070804 61 283 22.0 26.0 0.00 1.27 0.01 81 1000.8
20260904070304 61 283 21.0 24.0 0.00 1.27 0.01 81 1000.8
20260904070106 60 289 17.0 24.0 0.00 0.32 0.00 81 1000.7
20260904064804 60 272 16.0 21.0 0.00 1.27 0.01 81 1000.8
20260904064621 60 276 15.0 23.0 0.00 0.32 0.00 81 1000.7
20260904063804 61 274 18.0 23.0 0.00 1.27 0.01 82 1000.7
20260904063304 61 283 18.0 23.0 0.00 1.27 0.01 81 1000.9
20260904063106 60 274 16.0 22.0 0.00 0.32 0.00 81 1000.9
20260904061603 60 283 16.0 28.0 0.00 0.32 0.00 80 1001.0
20260904061304 61 284 17.0 25.0 0.00 1.26 0.01 80 1001.1
20260904060804 61 289 22.0 28.0 0.00 1.26 0.01 80 1001.0
20260904060304 61 289 20.0 28.0 0.00 1.26 0.01 80 1001.0
20260904060110 60 295 22.0 28.0 0.00 0.32 0.00 79 1000.9
20260904054604 60 293 18.0 28.0 0.00 0.32 0.00 80 1001.1
20260904054304 61 304 22.0 28.0 0.00 1.26 0.01 80 1001.3
20260904053804 61 299 22.0 26.0 0.00 1.26 0.01 80 1001.3
20260904053111 60 291 19.0 29.0 0.00 0.32 0.00 79 1001.2
20260904051607 60 276 20.0 26.0 0.00 0.32 0.00 80 1001.3
20260904051304 61 296 21.0 24.0 0.00 1.26 0.01 80 1001.4
20260904050804 60 291 21.0 29.0 0.00 1.26 0.01 80 1001.4
20260904050304 60 290 20.0 28.0 0.00 1.26 0.01 80 1001.4
20260904050144 60 278 22.0 28.0 0.00 0.32 0.00 80 1001.2
20260904044602 60 270 23.0 31.0 0.00 0.32 0.00 80 1001.2
20260904043804 60 289 22.0 31.0 0.00 1.26 0.01 80 1001.4
20260904043304 60 307 20.0 26.0 0.00 1.26 0.01 80 1001.4
20260904043104 60 295 15.0 26.0 0.00 0.32 0.00 80 1001.3
20260904041615 60 300 20.0 28.0 0.00 0.32 0.00 80 1001.5
20260904041304 61 294 21.0 26.0 0.00 1.26 0.01 81 1001.5
20260904040304 60 290 20.0 30.0 0.00 1.26 0.01 81 1001.4
20260904040107 60 305 19.0 30.0 0.00 0.32 0.00 80 1001.4